TimeCDT,TemperatureF,Dew PointF,Humidity,Sea Level PressureIn,VisibilityMPH,Wind Direction,Wind SpeedMPH,Gust SpeedMPH,PrecipitationIn,Events,Conditions,WindDirDegrees,DateUTC
12:53 AM,59.0,57.9,96,29.95,8.0,Calm,Calm,-,N/A,,Clear,0,2011-10-27 05:53:00
1:53 AM,59.0,57.0,93,29.94,8.0,Calm,Calm,-,N/A,,Clear,0,2011-10-27 06:53:00
2:53 AM,59.0,57.9,96,29.94,6.0,Calm,Calm,-,N/A,,Clear,0,2011-10-27 07:53:00
3:53 AM,60.1,59.0,96,29.92,7.0,Calm,Calm,-,N/A,,Clear,0,2011-10-27 08:53:00
4:53 AM,60.1,59.0,96,29.91,6.0,Calm,Calm,-,N/A,,Clear,0,2011-10-27 09:53:00
5:53 AM,60.1,59.0,96,29.91,5.0,Calm,Calm,-,N/A,,Clear,0,2011-10-27 10:53:00
6:40 AM,59.0,59.0,100,29.92,2.0,Calm,Calm,-,N/A,,Clear,0,2011-10-27 11:40:00
6:53 AM,60.1,60.1,100,29.91,3.0,Calm,Calm,-,N/A,,Clear,0,2011-10-27 11:53:00
7:53 AM,60.1,59.0,96,29.92,5.0,Calm,Calm,-,N/A,Fog,Shallow Fog,0,2011-10-27 12:53:00
8:53 AM,68.0,64.9,90,29.93,5.0,Calm,Calm,-,N/A,,Clear,0,2011-10-27 13:53:00
9:53 AM,73.9,64.9,73,29.94,10.0,Calm,Calm,-,N/A,,Clear,0,2011-10-27 14:53:00
10:53 AM,77.0,66.0,69,29.94,10.0,Calm,Calm,-,N/A,,Partly Cloudy,0,2011-10-27 15:53:00
11:53 AM,79.0,59.0,50,29.93,10.0,Calm,Calm,-,N/A,,Clear,0,2011-10-27 16:53:00
12:53 PM,81.0,55.0,41,29.91,10.0,Variable,3.5,-,N/A,,Clear,0,2011-10-27 17:53:00
1:53 PM,82.9,53.1,36,29.88,10.0,Variable,6.9,-,N/A,,Clear,0,2011-10-27 18:53:00
2:53 PM,84.0,54.0,35,29.86,10.0,Variable,3.5,-,N/A,,Scattered Clouds,0,2011-10-27 19:53:00
3:53 PM,84.9,52.0,32,29.85,10.0,Variable,5.8,-,N/A,,Scattered Clouds,0,2011-10-27 20:53:00
4:53 PM,84.0,50.0,31,29.85,10.0,Calm,Calm,-,N/A,,Clear,0,2011-10-27 21:53:00
5:53 PM,79.0,53.1,40,29.86,10.0,Calm,Calm,-,N/A,,Clear,0,2011-10-27 22:53:00
6:53 PM,71.1,57.9,63,29.86,10.0,East,3.5,-,N/A,,Clear,90,2011-10-27 23:53:00
7:53 PM,70.0,57.9,65,29.88,10.0,Calm,Calm,-,N/A,,Clear,0,2011-10-28 00:53:00
8:53 PM,66.0,57.9,75,29.89,10.0,SSE,4.6,-,N/A,,Clear,150,2011-10-28 01:53:00
9:53 PM,64.9,59.0,81,29.91,10.0,Calm,Calm,-,N/A,,Clear,0,2011-10-28 02:53:00
10:53 PM,64.0,60.1,87,29.91,8.0,Calm,Calm,-,N/A,,Clear,0,2011-10-28 03:53:00
11:53 PM,62.1,59.0,90,29.90,10.0,Calm,Calm,-,N/A,,Clear,0,2011-10-28 04:53:00